This demonstration page uses our WeatherBlox Daily Observations layout. Learn more.

Left ArrowRight Arrow

39.51506, -84.39828

Hourly Observations for May 13, 2021

Temp ( °F °C ) Dew Point ( °F °C ) Humidity (%) Winds ( mph kmh ) Pressure ( in mb ) Visibility ( mi km ) Precip ( " mm )
12:15 am 00:15 Clear 45 7.1 40 4.6 84 84 N N/A 30.4 1029 10 16.0934 N/A
12:35 am 00:35 Clear 44 6.4 39 4 85 85 NNE 3 6 30.41 1030 10 16.0934 N/A
12:55 am 00:55 Clear 43 6.1 39 3.9 86 86 NNE 3 6 30.41 1030 10 16.0934 N/A
1:15 am 01:15 Clear 41 5 39 3.7 91 91 NE 3 6 30.41 1030 10 16.0934 N/A
1:35 am 01:35 Clear 41 4.8 39 3.8 93 93 N N/A 30.41 1030 10 16.0934 N/A
1:55 am 01:55 Clear 38 3.6 37 2.9 95 95 NNE 5 7 30.42 1030 10 16.0934 N/A
2:15 am 02:15 Clear 38 3.5 38 3.1 97 97 NNE 6 9 30.42 1030 10 16.0934 N/A
2:35 am 02:35 Clear 38 3.3 37 3 98 98 NNE 5 7 30.41 1030 10 16.0934 N/A
2:55 am 02:55 Clear 38 3.2 37 2.8 97 97 NE 5 7 30.41 1030 10 16.0934 N/A
3:15 am 03:15 Clear 38 3.1 37 2.7 97 97 N N/A 30.41 1030 10 16.0934 N/A
3:35 am 03:35 Clear 37 2.9 37 2.8 99 99 NE 5 7 30.41 1030 10 16.0934 N/A
3:55 am 03:55 Clear 38 3.6 38 3.5 99 99 ENE 5 7 30.41 1030 10 16.0934 N/A
4:15 am 04:15 Clear 38 3.4 38 3.2 99 99 NE 3 6 30.41 1030 10 16.0934 N/A
4:35 am 04:35 Clear 38 3.6 37 3 96 96 ENE 5 7 30.41 1030 10 16.0934 N/A
4:55 am 04:55 Clear 36 2.3 36 2.1 99 99 ENE 5 7 30.41 1030 10 16.0934 N/A
5:15 am 05:15 Clear 37 3 36 2 93 93 ENE 5 7 30.42 1030 10 16.0934 N/A
5:35 am 05:35 Clear 37 3 N/A N/A NE 5 7 30.42 1030 10 16.0934 N/A
5:55 am 05:55 Clear 36 2 N/A N/A ENE 3 6 30.42 1030 10 16.0934 N/A
6:15 am 06:15 Clear 34 1 N/A N/A NE 3 6 30.42 1030 10 16.0934 N/A
6:35 am 06:35 Sunny 36 2 N/A N/A NE 5 7 30.42 1030 10 16.0934 N/A
6:55 am 06:55 Sunny 37 3 N/A N/A ENE 5 7 30.43 1030 10 16.0934 N/A
7:15 am 07:15 Sunny 37 3 N/A N/A ENE 3 6 30.43 1030 10 16.0934 N/A
7:35 am 07:35 Sunny 40 4.6 40 4.6 100 100 ENE 3 6 30.43 1031 10 16.0934 N/A
7:55 am 07:55 Sunny 43 6 41 5 93 93 E 5 7 30.44 1031 10 16.0934 N/A
8:15 am 08:15 Sunny 45 7.4 42 5.3 87 87 E 3 6 30.44 1031 10 16.0934 N/A
8:35 am 08:35 Sunny 48 8.7 41 5.2 79 79 E 5 7 30.44 1031 10 16.0934 N/A
8:55 am 08:55 Sunny 50 10.2 40 4.4 68 68 ENE 5 7 30.44 1031 10 16.0934 N/A
9:15 am 09:15 Sunny 53 11.6 38 3.5 58 58 ENE 7 11 30.44 1031 7 11.26538 N/A
9:35 am 09:35 Sunny 54 12.4 39 3.8 56 56 ENE 7 11 30.43 1031 10 16.0934 N/A
9:55 am 09:55 Sunny 56 13.5 38 3.3 50 50 NE 10 17 30.42 1030 10 16.0934 N/A
10:15 am 10:15 Sunny 57 14 38 3.2 48 48 ENE 7 11 30.42 1030 10 16.0934 N/A
10:35 am 10:35 Sunny 59 15 37 2.7 44 44 NE 8 13 30.42 1030 10 16.0934 N/A
10:55 am 10:55 Sunny 60 15.6 31 -0.4 34 34 E 6 9 30.42 1030 10 16.0934 N/A
11:15 am 11:15 Sunny 62 16.4 34 1.2 36 36 E 6 9 30.41 1030 10 16.0934 N/A
11:35 am 11:35 Sunny 62 16.6 33 0.6 34 34 NE 7 11 30.4 1030 10 16.0934 N/A
11:55 am 11:55 Sunny 63 17 31 -0.3 31 31 ESE 12 19 30.4 1030 10 16.0934 N/A
12:15 pm 12:15 Sunny 63 17.4 31 -0.4 30 30 ESE 13 20 30.4 1029 10 16.0934 N/A
12:35 pm 12:35 Sunny 63 17.3 30 -1 29 29 ESE 14 22 30.4 1029 10 16.0934 N/A
12:55 pm 12:55 Sunny 64 17.5 32 -0.1 31 31 E 9 15 30.39 1029 10 16.0934 N/A
1:15 pm 13:15 Sunny 64 18 31 -0.7 28 28 E 10 17 30.38 1029 10 16.0934 N/A
1:35 pm 13:35 Sunny 64 17.8 32 -0.1 30 30 ENE 9 15 30.37 1028 10 16.0934 N/A
1:55 pm 13:55 Sunny 64 17.5 32 -0.2 30 30 ENE 8 13 30.37 1028 10 16.0934 N/A
2:15 pm 14:15 Partly Cloudy 65 18.1 32 -0.2 29 29 ENE 3 6 30.35 1028 10 16.0934 N/A
2:35 pm 14:35 Partly Cloudy 65 18.6 32 0.2 29 29 ESE 7 11 30.35 1028 10 16.0934 N/A
2:55 pm 14:55 Sunny 66 18.8 32 -0.2 28 28 ESE 8 13 30.34 1027 10 16.0934 N/A
3:15 pm 15:15 Sunny 66 19 31 -0.4 27 27 E 9 15 30.34 1027 10 16.0934 N/A
3:35 pm 15:35 Partly Cloudy 66 18.8 30 -0.9 27 27 SE 6 9 30.33 1027 10 16.0934 N/A
3:55 pm 15:55 Partly Cloudy 67 19.2 33 0.8 29 29 NE 8 13 30.32 1027 10 16.0934 N/A
4:15 pm 16:15 Partly Cloudy 65 18.4 32 undefined 29 29 NNE 12 19 30.32 1027 10 16.0934 N/A
4:35 pm 16:35 Sunny 67 19.2 31 -0.5 27 27 E 9 15 30.31 1026 10 16.0934 N/A
4:55 pm 16:55 Partly Cloudy 67 19.3 31 -0.6 26 26 E 5 7 30.31 1026 10 16.0934 N/A
5:15 pm 17:15 Partly Cloudy 67 19.3 32 undefined 27 27 NNE 6 9 30.3 1026 10 16.0934 N/A
5:35 pm 17:35 Mostly Cloudy 67 19.6 30 -0.9 25 25 E 5 7 30.3 1026 10 16.0934 N/A
5:55 pm 17:55 Mostly Cloudy 66 18.9 31 -0.7 27 27 ENE 5 7 30.3 1026 10 16.0934 N/A
6:15 pm 18:15 Sunny 66 19 29 -1.5 25 25 ESE 9 15 30.29 1026 10 16.0934 N/A
6:35 pm 18:35 Partly Cloudy 63 17.4 32 0.1 31 31 ENE 7 11 30.29 1026 10 16.0934 N/A
6:55 pm 18:55 Sunny 62 16.8 32 0.2 33 33 NNE 3 6 30.29 1026 10 16.0934 N/A
7:15 pm 19:15 Mostly Cloudy 65 18.4 32 0.1 29 29 NE 6 9 30.28 1025 10 16.0934 N/A
7:35 pm 19:35 Partly Cloudy 64 17.9 32 -0.1 30 30 NE 8 13 30.29 1026 10 16.0934 N/A
7:55 pm 19:55 Sunny 63 17.3 31 -0.5 30 30 NE 7 11 30.29 1026 10 16.0934 N/A
8:15 pm 20:15 Partly Cloudy 62 16.5 32 undefined 33 33 NE 6 9 30.29 1026 10 16.0934 N/A
8:35 pm 20:35 Sunny 59 14.8 40 4.2 49 49 NNE 5 7 30.3 1026 10 16.0934 N/A
8:55 pm 20:55 Partly Cloudy 56 13.3 40 4.7 56 56 N 5 7 30.3 1026 10 16.0934 N/A
9:15 pm 21:15 Clear 54 12 40 4.6 61 61 N N/A 30.31 1027 10 16.0934 N/A
9:35 pm 21:35 Partly Cloudy 53 11.4 39 4 61 61 NNE 5 7 30.32 1027 10 16.0934 N/A
9:55 pm 21:55 Clear 49 9.2 42 5.3 77 77 N N/A 30.33 1027 10 16.0934 N/A
10:15 pm 22:15 Partly Cloudy 49 9.5 41 4.8 73 73 NNE 3 6 30.33 1027 10 16.0934 N/A
10:35 pm 22:35 Clear 47 8.6 40 4.4 75 75 NNE 3 6 30.34 1028 10 16.0934 N/A
10:55 pm 22:55 Clear 48 8.9 41 4.9 76 76 NNE 5 7 30.34 1027 10 16.0934 N/A
11:15 pm 23:15 Clear 46 7.5 40 4.6 82 82 N 5 7 30.35 1028 10 16.0934 N/A
11:35 pm 23:35 Clear 46 7.7 40 4.3 79 79 NNE 3 6 30.34 1028 10 16.0934 N/A
11:55 pm 23:55 Clear 46 7.5 40 4.5 81 81 NNE 3 6 30.35 1028 10 16.0934 N/A

Powered by AerisWeather